TITAN 3C TRANSTAGE DEB, 33510

Orbit data source: Space-Track

TITAN 3C TRANSTAGE DEB, 33510 is space debris in GEO originally from a launch on Thu, 26 Sep 1968 UTC launched from the Air Force Eastern Test Range (AFETR). Debris objects in space refer to the collection of defunct objects orbiting the Earth. Examples of debris include non-operational satellites, rocket bodies, and fragments generated from explosions, collisions, or faulty payload assembly.

Not visible in the next 10 days
Identifier
33510, 1968-081L
Orbit
GEO
Country
Flag of USUS
Related business
Manufacturer
Unknown
Mission
Spacecraft
Bus & Motor
Unknown
Mass
Unknown
Launch date (UTC)
1968-09-26 (57 years ago)
Launch vehicle
Unknown
Launch site
Air Force Eastern Test Range (AFETR)
Object type
Payload
Rocket body
Debris
Shape & HBR
Unknown shape, 1.1 m
Radar Cross Section
Medium (>0.1 m² and <1 m²)

Expand to show TLE details & history
Last TLE update: 1 month ago

TLE from 1 month ago
0 TITAN 3C TRANSTAGE DEB
1 33510U 68081L   25315.29233185  .00000063  00000-0  00000-0 0  9993
2 33510   1.5854  47.7026 0066642 290.1315 358.7086  1.01820763  4894
Epoch: 2025-11-11T07:00Z
TLE epoch observation values (Epoch: 2025-11-11T07:00:57.471Z)
Latitude
-1.48858°
Longitude
-179.40825°
Altitude
35,080.418 km
Speed
3.111 km/s
True Right ascension
22h 26m 02s
True Declination
-1° 29' 13"
Sunlit
Object was in daylight at epoch
Visualization orbit readout
Latitude
Unknown
Longitude
Unknown
Altitude
Unknown
Speed
Unknown
Apparent Right ascension
Unknown
Apparent Declination
Unknown
Sunlit
N/A
Visualization observer readout
Local Sidereal Time
13:01:08
Azimuth
Unknown
Elevation
Unknown
Doppler factor
Unknown
Orbital elements
Apogee altitude
35,637.099 km
Perigee altitude
35,080.81 km
Semi-major axis
41,737.091 km
Eccentricity
0.00666
Inclination
1.5854°
RAAN
47.7026°
Arg. of periapsis
290.1315°
True anomaly
358.69124°
Mean anomaly
358.7086°
Eccentric anomaly
358.69994°
Mean motion
0.25454 °/min
Orbital period
1,414.3 mins
BSTAR
0
Loading maneuver chart data...
Computing Atmospheric mass density...

Documentation

Showing up to 5 results
|